Weather History for KFSM - January, 2013

Change the Weather History Date:

Wednesday, January 23, 2013

  Actual Average Record
Temperature  
Mean Temperature 46 °F 40 °F  
Max Temperature 61 °F 50 °F 78 °F (1967)
Min Temperature 31 °F 29 °F -3 °F (1930)
Degree Days  
Heating Degree Days 19 25  
Month to date heating degree days 539 595  
Since 1 July heating degree days 1631 1894  
Moisture  
Dew Point 31 °F    
Average Humidity 58    
Maximum Humidity 76    
Minimum Humidity 40    
Precipitation  
Precipitation 0.00 in 0.09 in 2.06 in (1949)
Month to date precipitation 1.23 2.05  
Year to date precipitation 1.23 2.05  
Sea Level Pressure  
Sea Level Pressure 30.24 in    
Wind  
Wind Speed 6 mph (ENE)    
Max Wind Speed 13 mph    
Max Gust Speed 15 mph    
Visibility 10 miles    
Events      
T = Trace of Precipitation, MM = Missing Value Source: NWS Daily Summary

Daily Weather History Graph

Daily Weather History Graph

Search for Another Location

Airport or City:

Trip Planner

Search our weather history database for the weather conditions in past years. The results will help you decide how hot, cold, wet, or windy it might be!

Date:

Astronomy

Jan. 23, 2013 Rise Set
Actual Time 7:22 AM CST 5:36 PM CST
Civil Twilight 6:55 AM CST 6:03 PM CST
Nautical Twilight 6:24 AM CST 6:34 PM CST
Astronomical Twilight 5:54 AM CST 7:04 PM CST
Moon 2:49 PM CST (1/23) 4:32 AM CST (1/23)
Length of Visible Light 11h 08m
Length of Day
10h 14m
Waxing Gibbous, 89% of the Moon is Illuminated
Jan 23
Waxing Gibbous
Jan 26
Full
Feb 3
Last Quarter
Feb 10
New
Feb 17
First Quarter

Hourly Weather History & Observations

Time (CST) Temp. Windchill Dew Point Humidity Pressure Visibility Wind Dir Wind Speed Gust Speed Precip Events Conditions
12:53 AM 33.8 °F 27.0 °F 23.0 °F 65% 30.30 in 10.0 mi ENE 8.1 mph - N/A   Clear
1:53 AM 33.1 °F 27.7 °F 21.9 °F 64% 30.30 in 10.0 mi East 5.8 mph - N/A   Clear
2:53 AM 32.0 °F 24.2 °F 23.0 °F 69% 30.30 in 10.0 mi ENE 9.2 mph - N/A   Mostly Cloudy
3:53 AM 32.0 °F 25.6 °F 23.0 °F 69% 30.29 in 10.0 mi East 6.9 mph - N/A   Partly Cloudy
4:53 AM 33.1 °F 26.9 °F 24.1 °F 70% 30.29 in 10.0 mi ENE 6.9 mph - N/A   Mostly Cloudy
5:53 AM 33.8 °F 25.8 °F 24.8 °F 70% 30.27 in 10.0 mi East 10.4 mph - N/A   Mostly Cloudy
6:53 AM 32.0 °F 26.4 °F 24.1 °F 73% 30.29 in 10.0 mi East 5.8 mph - N/A   Scattered Clouds
7:53 AM 32.0 °F 23.6 °F 24.1 °F 73% 30.29 in 10.0 mi ENE 10.4 mph - N/A   Clear
8:53 AM 36.0 °F 28.0 °F 25.0 °F 64% 30.31 in 10.0 mi East 11.5 mph - N/A   Clear
9:53 AM 39.9 °F 34.5 °F 26.1 °F 58% 30.32 in 10.0 mi NE 8.1 mph - N/A   Clear
10:53 AM 46.0 °F 43.1 °F 28.0 °F 50% 30.30 in 10.0 mi ENE 5.8 mph - N/A   Clear
11:53 AM 48.9 °F - 30.0 °F 48% 30.27 in 10.0 mi NE 5.8 mph - N/A   Clear
12:53 PM 54.0 °F - 32.0 °F 43% 30.22 in 10.0 mi NNE 5.8 mph - N/A   Clear
1:53 PM 57.0 °F - 34.0 °F 42% 30.19 in 10.0 mi NE 4.6 mph - N/A   Clear
2:53 PM 60.1 °F - 37.0 °F 42% 30.18 in 10.0 mi ENE 3.5 mph - N/A   Clear
3:53 PM 59.0 °F - 37.9 °F 46% 30.17 in 10.0 mi NE 4.6 mph - N/A   Clear
5:53 PM 53.1 °F - 39.0 °F 59% 30.16 in 10.0 mi ENE 5.8 mph - N/A   Clear
6:53 PM 51.1 °F - 39.0 °F 63% 30.17 in 10.0 mi Calm Calm - N/A   Clear
7:53 PM 46.9 °F - 37.9 °F 71% 30.18 in 10.0 mi Calm Calm - N/A   Clear
8:53 PM 46.4 °F 45.2 °F 37.4 °F 71% 30.19 in 10.0 mi NE 3.5 mph - N/A   Clear
9:53 PM 46.9 °F - 39.0 °F 74% 30.21 in 10.0 mi ENE 3.5 mph - N/A   Clear
10:53 PM 44.1 °F 41.5 °F 37.9 °F 79% 30.21 in 10.0 mi NE 4.6 mph - N/A   Clear
11:53 PM 43.0 °F 40.3 °F 37.9 °F 82% 30.20 in 9.0 mi ENE 4.6 mph - N/A   Clear